Back to catalog

DELTA 1 DEB

AliveSSO
NORAD 42652·DEBRIS·🇺🇸 United States

Launched Jun 12, 1975 from Vandenberg Space Force Base

Loading…

Next Passes (next 24 hours)

TLE

FreshSource: Space-Track

Epoch: Sep 13, 2026, 05:00 UTC

1 42652U 75052MM  26256.20857730  .00000166  00000-0  41573-3 0  9997
2 42652  99.7890  38.7028 0073587 120.4441   3.6336 13.33228341622985

Track DELTA 1 DEB in real time with AllMySat

Download on the App Store